owner,sensor,date,latitude,longitude,vertical_datum,direction_of_sea_water_velocity,sea_water_speed,upward_sea_water_velocity,qcFlag 
TABS,ioos:station:wmo:42047:1,2017-03-01T00:00:00Z,27.8966,-93.5973,2.0,118.8241946,26.09283427,-99999.0,'11111222,11111222,99999999' 
TABS,ioos:station:wmo:42047:1,2017-03-01T00:30:00Z,27.8966,-93.5973,2.0,108.9669923,20.09081631,-99999.0,'11111222,11111222,99999999' 
TABS,ioos:station:wmo:42047:1,2017-03-01T01:00:00Z,27.8966,-93.5973,2.0,109.0457104,22.24788754,-99999.0,'11111222,11111222,99999999' 
TABS,ioos:station:wmo:42047:1,2017-03-01T01:30:00Z,27.8966,-93.5973,2.0,108.8155679,17.61111297,-99999.0,'11111222,11111222,99999999' 
TABS,ioos:station:wmo:42047:1,2017-03-01T02:00:00Z,27.8966,-93.5973,2.0,125.4787998,13.59400603,-99999.0,'11111222,11111222,99999999' 
TABS,ioos:station:wmo:42047:1,2017-03-01T02:30:00Z,27.8966,-93.5973,2.0,122.8625151,14.59568429,-99999.0,'11111222,11111222,99999999' 
TABS,ioos:station:wmo:42047:1,2017-03-01T03:00:00Z,27.8966,-93.5973,2.0,111.0922902,15.00533239,-99999.0,'11111222,11111222,99999999' 
TABS,ioos:station:wmo:42047:1,2017-03-01T03:30:00Z,27.8966,-93.5973,2.0,119.8248815,12.42581184,-99999.0,'11111222,11111222,99999999' 
TABS,ioos:station:wmo:42047:1,2017-03-01T04:00:00Z,27.8966,-93.5973,2.0,114.5796501,11.87617784,-99999.0,'11111222,11111222,99999999' 
TABS,ioos:station:wmo:42047:1,2017-03-01T04:30:00Z,27.8966,-93.5973,2.0,101.5514438,17.67806551,-99999.0,'11111222,11111222,99999999' 
TABS,ioos:station:wmo:42047:1,2017-03-01T05:00:00Z,27.8966,-93.5973,2.0,109.0556755,14.88571463,-99999.0,'11111222,11111222,99999999' 
TABS,ioos:station:wmo:42047:1,2017-03-01T05:30:00Z,27.8966,-93.5973,2.0,94.43746678,14.73416777,-99999.0,'11111222,11111222,99999999' 
TABS,ioos:station:wmo:42047:1,2017-03-01T06:00:00Z,27.8966,-93.5973,2.0,98.33517589,17.38362448,-99999.0,'11111222,11111222,99999999' 
TABS,ioos:station:wmo:42047:1,2017-03-01T06:30:00Z,27.8966,-93.5973,2.0,87.27369538,15.13713315,-99999.0,'11111222,11111222,99999999' 
TABS,ioos:station:wmo:42047:1,2017-03-01T07:00:00Z,27.8966,-93.5973,2.0,84.01635641,14.19735187,-99999.0,'11111222,11111222,99999999' 
TABS,ioos:station:wmo:42047:1,2017-03-01T07:30:00Z,27.8966,-93.5973,2.0,77.21911565,18.48807724,-99999.0,'11111222,11111222,99999999' 
TABS,ioos:station:wmo:42047:1,2017-03-01T08:00:00Z,27.8966,-93.5973,2.0,78.29213925,20.89471704,-99999.0,'11111222,11111222,99999999' 
TABS,ioos:station:wmo:42047:1,2017-03-01T08:30:00Z,27.8966,-93.5973,2.0,84.25309146,21.97042558,-99999.0,'11111222,11111222,99999999' 
TABS,ioos:station:wmo:42047:1,2017-03-01T09:00:00Z,27.8966,-93.5973,2.0,84.54936087,21.05520363,-99999.0,'11111222,11111222,99999999' 
TABS,ioos:station:wmo:42047:1,2017-03-01T09:30:00Z,27.8966,-93.5973,2.0,86.54282437,20.39711989,-99999.0,'11111222,11111222,99999999' 
TABS,ioos:station:wmo:42047:1,2017-03-01T10:00:00Z,27.8966,-93.5973,2.0,92.16453219,15.62114592,-99999.0,'11111222,11111222,99999999' 
TABS,ioos:station:wmo:42047:1,2017-03-01T10:30:00Z,27.8966,-93.5973,2.0,90.65017234,22.03141847,-99999.0,'11111222,11111222,99999999' 
TABS,ioos:station:wmo:42047:1,2017-03-01T11:00:00Z,27.8966,-93.5973,2.0,90.3864306,22.24050584,-99999.0,'11111222,11111222,99999999' 
TABS,ioos:station:wmo:42047:1,2017-03-01T11:30:00Z,27.8966,-93.5973,2.0,87.27220459,18.28071388,-99999.0,'11111222,11111222,99999999' 
TABS,ioos:station:wmo:42047:1,2017-03-01T12:00:00Z,27.8966,-93.5973,2.0,90.92610313,17.94234377,-99999.0,'11111222,11111222,99999999' 
TABS,ioos:station:wmo:42047:1,2017-03-01T12:30:00Z,27.8966,-93.5973,2.0,84.39094013,25.27099919,-99999.0,'11111222,11111222,99999999' 
TABS,ioos:station:wmo:42047:1,2017-03-01T13:00:00Z,27.8966,-93.5973,2.0,87.88201242,27.32866993,-99999.0,'11111222,11111222,99999999' 
TABS,ioos:station:wmo:42047:1,2017-03-01T13:30:00Z,27.8966,-93.5973,2.0,84.92184939,26.32332236,-99999.0,'11111222,11111222,99999999' 
TABS,ioos:station:wmo:42047:1,2017-03-01T14:00:00Z,27.8966,-93.5973,2.0,95.15703678,26.36673093,-99999.0,'11111222,11111222,99999999' 
TABS,ioos:station:wmo:42047:1,2017-03-01T14:30:00Z,27.8966,-93.5973,2.0,95.26914205,27.76733693,-99999.0,'11111222,11111222,99999999' 
TABS,ioos:station:wmo:42047:1,2017-03-01T15:00:00Z,27.8966,-93.5973,2.0,97.02482743,24.1210717,-99999.0,'11111222,11111222,99999999' 
TABS,ioos:station:wmo:42047:1,2017-03-01T15:30:00Z,27.8966,-93.5973,2.0,98.49657501,26.53118919,-99999.0,'11111222,11111222,99999999' 
TABS,ioos:station:wmo:42047:1,2017-03-01T16:00:00Z,27.8966,-93.5973,2.0,102.869503,23.34646868,-99999.0,'11111222,11111222,99999999' 
TABS,ioos:station:wmo:42047:1,2017-03-01T16:30:00Z,27.8966,-93.5973,2.0,95.80366035,18.98732472,-99999.0,'11111222,11111222,99999999' 
TABS,ioos:station:wmo:42047:1,2017-03-01T17:00:00Z,27.8966,-93.5973,2.0,102.3519053,21.78426037,-99999.0,'11111222,11111222,99999999' 
TABS,ioos:station:wmo:42047:1,2017-03-01T17:30:00Z,27.8966,-93.5973,2.0,94.17174898,18.00771224,-99999.0,'11111222,11111222,99999999' 
TABS,ioos:station:wmo:42047:1,2017-03-01T18:00:00Z,27.8966,-93.5973,2.0,65.68705002,19.91638772,-99999.0,'11111222,11111222,99999999' 
TABS,ioos:station:wmo:42047:1,2017-03-01T18:30:00Z,27.8966,-93.5973,2.0,78.05758442,18.65374225,-99999.0,'11111222,11111222,99999999' 
TABS,ioos:station:wmo:42047:1,2017-03-01T19:00:00Z,27.8966,-93.5973,2.0,70.82103682,23.8645595,-99999.0,'11111222,11111222,99999999' 
TABS,ioos:station:wmo:42047:1,2017-03-01T19:30:00Z,27.8966,-93.5973,2.0,88.13932146,24.02266638,-99999.0,'11111222,11111222,99999999' 
TABS,ioos:station:wmo:42047:1,2017-03-01T20:00:00Z,27.8966,-93.5973,2.0,151.4340195,27.6680845,-99999.0,'11111222,11111222,99999999' 
TABS,ioos:station:wmo:42047:1,2017-03-01T20:30:00Z,27.8966,-93.5973,2.0,157.5982047,24.63940949,-99999.0,'11111222,11111222,99999999' 
TABS,ioos:station:wmo:42047:1,2017-03-01T21:00:00Z,27.8966,-93.5973,2.0,154.9604739,27.71470729,-99999.0,'11111222,11111222,99999999' 
TABS,ioos:station:wmo:42047:1,2017-03-01T21:30:00Z,27.8966,-93.5973,2.0,157.9291035,25.28269962,-99999.0,'11111222,11111222,99999999' 
TABS,ioos:station:wmo:42047:1,2017-03-01T22:00:00Z,27.8966,-93.5973,2.0,150.2182633,27.09911438,-99999.0,'11111222,11111222,99999999' 
TABS,ioos:station:wmo:42047:1,2017-03-01T22:30:00Z,27.8966,-93.5973,2.0,157.3975308,25.10846272,-99999.0,'11111222,11111222,99999999' 
TABS,ioos:station:wmo:42047:1,2017-03-01T23:00:00Z,27.8966,-93.5973,2.0,154.630279,26.79392655,-99999.0,'11111222,11111222,99999999' 
TABS,ioos:station:wmo:42047:1,2017-03-01T23:30:00Z,27.8966,-93.5973,2.0,156.9872661,21.43588813,-99999.0,'11111222,11111222,99999999' 
TABS,ioos:station:wmo:42047:1,2017-03-02T00:00:00Z,27.8966,-93.5973,2.0,151.2572225,22.83332652,-99999.0,'11111222,11111222,99999999' 
TABS,ioos:station:wmo:42047:1,2017-03-02T00:30:00Z,27.8966,-93.5973,2.0,145.8232065,17.96184011,-99999.0,'11111222,11111222,99999999' 
TABS,ioos:station:wmo:42047:1,2017-03-02T01:00:00Z,27.8966,-93.5973,2.0,146.4395088,13.4764758,-99999.0,'11111222,11111222,99999999' 
TABS,ioos:station:wmo:42047:1,2017-03-02T01:30:00Z,27.8966,-93.5973,2.0,128.646507,13.54651247,-99999.0,'11111222,11111222,99999999' 
TABS,ioos:station:wmo:42047:1,2017-03-02T02:00:00Z,27.8966,-93.5973,2.0,131.9068255,11.13901701,-99999.0,'11111222,11111222,99999999' 
TABS,ioos:station:wmo:42047:1,2017-03-02T02:30:00Z,27.8966,-93.5973,2.0,147.07105,9.602707951,-99999.0,'11133222,11111222,99999999' 
TABS,ioos:station:wmo:42047:1,2017-03-02T03:00:00Z,27.8966,-93.5973,2.0,119.7267403,7.865042912,-99999.0,'11133222,11111222,99999999' 
TABS,ioos:station:wmo:42047:1,2017-03-02T03:30:00Z,27.8966,-93.5973,2.0,106.5854367,6.270901052,-99999.0,'11133222,11111222,99999999' 
TABS,ioos:station:wmo:42047:1,2017-03-02T04:00:00Z,27.8966,-93.5973,2.0,110.0155933,12.03704698,-99999.0,'11111222,11111222,99999999' 
TABS,ioos:station:wmo:42047:1,2017-03-02T04:30:00Z,27.8966,-93.5973,2.0,158.9915304,16.90360908,-99999.0,'11111222,11111222,99999999' 
TABS,ioos:station:wmo:42047:1,2017-03-02T05:00:00Z,27.8966,-93.5973,2.0,179.3635509,18.01111046,-99999.0,'11111222,11111222,99999999' 
TABS,ioos:station:wmo:42047:1,2017-03-02T05:30:00Z,27.8966,-93.5973,2.0,179.675478,15.90025471,-99999.0,'11111222,11111222,99999999' 
TABS,ioos:station:wmo:42047:1,2017-03-02T06:00:00Z,27.8966,-93.5973,2.0,187.0223086,15.94965203,-99999.0,'11111222,11111222,99999999' 
TABS,ioos:station:wmo:42047:1,2017-03-02T06:30:00Z,27.8966,-93.5973,2.0,194.1287544,20.97450834,-99999.0,'11111222,11111222,99999999' 
TABS,ioos:station:wmo:42047:1,2017-03-02T07:00:00Z,27.8966,-93.5973,2.0,190.846159,17.696138,-99999.0,'11111222,11111222,99999999' 
TABS,ioos:station:wmo:42047:1,2017-03-02T07:30:00Z,27.8966,-93.5973,2.0,207.4161024,19.26361596,-99999.0,'11111222,11111222,99999999' 
TABS,ioos:station:wmo:42047:1,2017-03-02T08:00:00Z,27.8966,-93.5973,2.0,212.4945135,13.0299693,-99999.0,'11111222,11111222,99999999' 
TABS,ioos:station:wmo:42047:1,2017-03-02T08:30:00Z,27.8966,-93.5973,2.0,214.9686031,12.17870272,-99999.0,'11111222,11111222,99999999' 
TABS,ioos:station:wmo:42047:1,2017-03-02T09:00:00Z,27.8966,-93.5973,2.0,207.1653399,10.66663021,-99999.0,'11111222,11111222,99999999' 
TABS,ioos:station:wmo:42047:1,2017-03-02T09:30:00Z,27.8966,-93.5973,2.0,195.2235292,16.03262299,-99999.0,'11111222,11111222,99999999' 
TABS,ioos:station:wmo:42047:1,2017-03-02T10:00:00Z,27.8966,-93.5973,2.0,208.9355374,8.43272198,-99999.0,'11133222,11111222,99999999' 
TABS,ioos:station:wmo:42047:1,2017-03-02T10:30:00Z,27.8966,-93.5973,2.0,206.1579895,8.188687318,-99999.0,'11133222,11111222,99999999' 
TABS,ioos:station:wmo:42047:1,2017-03-02T11:00:00Z,27.8966,-93.5973,2.0,209.6793443,14.15733379,-99999.0,'11111222,11111222,99999999' 
TABS,ioos:station:wmo:42047:1,2017-03-02T11:30:00Z,27.8966,-93.5973,2.0,219.4780576,13.22770577,-99999.0,'11111222,11111222,99999999' 
TABS,ioos:station:wmo:42047:1,2017-03-02T12:00:00Z,27.8966,-93.5973,2.0,208.5152697,13.00803598,-99999.0,'11111222,11111222,99999999' 
TABS,ioos:station:wmo:42047:1,2017-03-02T12:30:00Z,27.8966,-93.5973,2.0,208.4868431,15.20039802,-99999.0,'11111222,11111222,99999999' 
TABS,ioos:station:wmo:42047:1,2017-03-02T13:00:00Z,27.8966,-93.5973,2.0,245.6962479,14.50549206,-99999.0,'11111222,11111222,99999999' 
TABS,ioos:station:wmo:42047:1,2017-03-02T13:30:00Z,27.8966,-93.5973,2.0,219.5774393,10.62586467,-99999.0,'11111222,11111222,99999999' 
TABS,ioos:station:wmo:42047:1,2017-03-02T14:00:00Z,27.8966,-93.5973,2.0,217.4840079,11.19064341,-99999.0,'11111222,11111222,99999999' 
TABS,ioos:station:wmo:42047:1,2017-03-02T14:30:00Z,27.8966,-93.5973,2.0,236.327318,8.9639556,-99999.0,'11133222,11111222,99999999' 
TABS,ioos:station:wmo:42047:1,2017-03-02T15:00:00Z,27.8966,-93.5973,2.0,247.7911825,6.534783853,-99999.0,'11133222,11111222,99999999' 
TABS,ioos:station:wmo:42047:1,2017-03-02T15:30:00Z,27.8966,-93.5973,2.0,246.8899835,8.458770596,-99999.0,'11133222,11111222,99999999' 
TABS,ioos:station:wmo:42047:1,2017-03-02T16:00:00Z,27.8966,-93.5973,2.0,234.9038444,7.235468195,-99999.0,'11133222,11111222,99999999' 
TABS,ioos:station:wmo:42047:1,2017-03-02T16:30:00Z,27.8966,-93.5973,2.0,257.7572765,8.677326777,-99999.0,'11133222,11111222,99999999' 
TABS,ioos:station:wmo:42047:1,2017-03-02T17:00:00Z,27.8966,-93.5973,2.0,244.735445,5.318740452,-99999.0,'11133222,11111222,99999999' 
TABS,ioos:station:wmo:42047:1,2017-03-02T17:30:00Z,27.8966,-93.5973,2.0,240.1491777,5.384356972,-99999.0,'11133222,11111222,99999999' 
TABS,ioos:station:wmo:42047:1,2017-03-02T18:00:00Z,27.8966,-93.5973,2.0,266.3030316,7.134844077,-99999.0,'11133222,11111222,99999999' 
TABS,ioos:station:wmo:42047:1,2017-03-02T18:30:00Z,27.8966,-93.5973,2.0,255.8777504,8.115251074,-99999.0,'11133222,11111222,99999999' 
TABS,ioos:station:wmo:42047:1,2017-03-02T19:00:00Z,27.8966,-93.5973,2.0,297.010704,8.631483071,-99999.0,'11133222,11111222,99999999' 
TABS,ioos:station:wmo:42047:1,2017-03-02T19:30:00Z,27.8966,-93.5973,2.0,276.8269498,12.61946512,-99999.0,'11111222,11111222,99999999' 
TABS,ioos:station:wmo:42047:1,2017-03-02T20:00:00Z,27.8966,-93.5973,2.0,281.0049973,14.72068613,-99999.0,'11111222,11111222,99999999' 
TABS,ioos:station:wmo:42047:1,2017-03-02T20:30:00Z,27.8966,-93.5973,2.0,276.6858868,10.99476239,-99999.0,'11111222,11111222,99999999' 
TABS,ioos:station:wmo:42047:1,2017-03-02T21:00:00Z,27.8966,-93.5973,2.0,288.8295565,16.54542837,-99999.0,'11111222,11111222,99999999' 
TABS,ioos:station:wmo:42047:1,2017-03-02T21:30:00Z,27.8966,-93.5973,2.0,289.1032297,11.12248623,-99999.0,'11111222,11111222,99999999' 
TABS,ioos:station:wmo:42047:1,2017-03-02T22:00:00Z,27.8966,-93.5973,2.0,306.1722588,11.65686493,-99999.0,'11111222,11111222,99999999' 
TABS,ioos:station:wmo:42047:1,2017-03-02T22:30:00Z,27.8966,-93.5973,2.0,299.1363594,9.571060547,-99999.0,'11133222,11111222,99999999' 
TABS,ioos:station:wmo:42047:1,2017-03-02T23:00:00Z,27.8966,-93.5973,2.0,282.5475261,10.17295434,-99999.0,'11111222,11111222,99999999' 
TABS,ioos:station:wmo:42047:1,2017-03-02T23:30:00Z,27.8966,-93.5973,2.0,281.0841313,9.93532083,-99999.0,'11133222,11111222,99999999' 
TABS,ioos:station:wmo:42047:1,2017-03-03T00:00:00Z,27.8966,-93.5973,2.0,298.5270121,9.27617378,-99999.0,'11133222,11111222,99999999' 
TABS,ioos:station:wmo:42047:1,2017-03-03T00:30:00Z,27.8966,-93.5973,2.0,252.0792911,6.337460059,-99999.0,'11133222,11111222,99999999' 
TABS,ioos:station:wmo:42047:1,2017-03-03T01:00:00Z,27.8966,-93.5973,2.0,290.4235766,6.562514762,-99999.0,'11133222,11111222,99999999' 
TABS,ioos:station:wmo:42047:1,2017-03-03T01:30:00Z,27.8966,-93.5973,2.0,273.2842755,4.888026187,-99999.0,'11133222,11111222,99999999' 
TABS,ioos:station:wmo:42047:1,2017-03-03T02:00:00Z,27.8966,-93.5973,2.0,280.1022737,3.534798438,-99999.0,'11133222,11111222,99999999' 
TABS,ioos:station:wmo:42047:1,2017-03-03T02:30:00Z,27.8966,-93.5973,2.0,227.4995699,3.404423593,-99999.0,'11133222,11111222,99999999' 
TABS,ioos:station:wmo:42047:1,2017-03-03T03:00:00Z,27.8966,-93.5973,2.0,249.2361633,4.202975137,-99999.0,'11133222,11111222,99999999' 
TABS,ioos:station:wmo:42047:1,2017-03-03T03:30:00Z,27.8966,-93.5973,2.0,212.3418942,3.065566832,-99999.0,'11133222,11111222,99999999' 
TABS,ioos:station:wmo:42047:1,2017-03-03T04:00:00Z,27.8966,-93.5973,2.0,258.9378389,7.244597987,-99999.0,'11133222,11111222,99999999' 
TABS,ioos:station:wmo:42047:1,2017-03-03T04:30:00Z,27.8966,-93.5973,2.0,279.0850049,3.990050125,-99999.0,'11133222,11111222,99999999' 
TABS,ioos:station:wmo:42047:1,2017-03-03T05:00:00Z,27.8966,-93.5973,2.0,229.6738371,3.384154252,-99999.0,'11133222,11111222,99999999' 
TABS,ioos:station:wmo:42047:1,2017-03-03T05:30:00Z,27.8966,-93.5973,2.0,268.4118334,4.69180136,-99999.0,'11133222,11111222,99999999' 
TABS,ioos:station:wmo:42047:1,2017-03-03T06:00:00Z,27.8966,-93.5973,2.0,291.9856151,1.736260349,-99999.0,'11133222,11111222,99999999' 
TABS,ioos:station:wmo:42047:1,2017-03-03T06:30:00Z,27.8966,-93.5973,2.0,271.3849404,6.621933252,-99999.0,'11133222,11111222,99999999' 
TABS,ioos:station:wmo:42047:1,2017-03-03T07:00:00Z,27.8966,-93.5973,2.0,261.1123286,8.026362813,-99999.0,'11133222,11111222,99999999' 
TABS,ioos:station:wmo:42047:1,2017-03-03T07:30:00Z,27.8966,-93.5973,2.0,248.5921923,7.561692932,-99999.0,'11133222,11111222,99999999' 
TABS,ioos:station:wmo:42047:1,2017-03-03T08:00:00Z,27.8966,-93.5973,2.0,267.6250435,6.275388434,-99999.0,'11133222,11111222,99999999' 
TABS,ioos:station:wmo:42047:1,2017-03-03T08:30:00Z,27.8966,-93.5973,2.0,279.1205687,6.056566684,-99999.0,'11133222,11111222,99999999' 
TABS,ioos:station:wmo:42047:1,2017-03-03T09:00:00Z,27.8966,-93.5973,2.0,302.5476115,7.509360825,-99999.0,'11133222,11111222,99999999' 
TABS,ioos:station:wmo:42047:1,2017-03-03T09:30:00Z,27.8966,-93.5973,2.0,283.2830459,7.00746031,-99999.0,'11133222,11111222,99999999' 
TABS,ioos:station:wmo:42047:1,2017-03-03T10:00:00Z,27.8966,-93.5973,2.0,252.2890987,5.752642871,-99999.0,'11133222,11111222,99999999' 
TABS,ioos:station:wmo:42047:1,2017-03-03T10:30:00Z,27.8966,-93.5973,2.0,278.8901718,9.706600847,-99999.0,'11133222,11111222,99999999' 
TABS,ioos:station:wmo:42047:1,2017-03-03T11:00:00Z,27.8966,-93.5973,2.0,241.7862494,9.328263504,-99999.0,'11133222,11111222,99999999' 
TABS,ioos:station:wmo:42047:1,2017-03-03T11:30:00Z,27.8966,-93.5973,2.0,253.8883469,5.693619236,-99999.0,'11133222,11111222,99999999' 
TABS,ioos:station:wmo:42047:1,2017-03-03T12:00:00Z,27.8966,-93.5973,2.0,227.9023298,10.0538152,-99999.0,'11111222,11111222,99999999' 
TABS,ioos:station:wmo:42047:1,2017-03-03T12:30:00Z,27.8966,-93.5973,2.0,275.2274291,6.366474692,-99999.0,'11133222,11111222,99999999' 
TABS,ioos:station:wmo:42047:1,2017-03-03T13:00:00Z,27.8966,-93.5973,2.0,253.8126804,7.820006394,-99999.0,'11133222,11111222,99999999' 
TABS,ioos:station:wmo:42047:1,2017-03-03T13:30:00Z,27.8966,-93.5973,2.0,275.8591332,10.77628879,-99999.0,'11111222,11111222,99999999' 
TABS,ioos:station:wmo:42047:1,2017-03-03T14:00:00Z,27.8966,-93.5973,2.0,258.6525164,6.048222879,-99999.0,'11133222,11111222,99999999' 
TABS,ioos:station:wmo:42047:1,2017-03-03T14:30:00Z,27.8966,-93.5973,2.0,277.4335674,14.06822306,-99999.0,'11111222,11111222,99999999' 
TABS,ioos:station:wmo:42047:1,2017-03-03T15:00:00Z,27.8966,-93.5973,2.0,305.4817146,10.64712637,-99999.0,'11111222,11111222,99999999' 
TABS,ioos:station:wmo:42047:1,2017-03-03T15:30:00Z,27.8966,-93.5973,2.0,287.8397066,14.29742984,-99999.0,'11111222,11111222,99999999' 
TABS,ioos:station:wmo:42047:1,2017-03-03T16:00:00Z,27.8966,-93.5973,2.0,277.8285674,15.56505059,-99999.0,'11111222,11111222,99999999' 
TABS,ioos:station:wmo:42047:1,2017-03-03T16:30:00Z,27.8966,-93.5973,2.0,281.9667434,12.15411453,-99999.0,'11111222,11111222,99999999' 
TABS,ioos:station:wmo:42047:1,2017-03-03T17:00:00Z,27.8966,-93.5973,2.0,273.1961896,17.93789564,-99999.0,'11111222,11111222,99999999' 
TABS,ioos:station:wmo:42047:1,2017-03-03T17:30:00Z,27.8966,-93.5973,2.0,293.6672514,15.74416717,-99999.0,'11111222,11111222,99999999' 
TABS,ioos:station:wmo:42047:1,2017-03-03T18:00:00Z,27.8966,-93.5973,2.0,293.7785312,16.09636605,-99999.0,'11111222,11111222,99999999' 
TABS,ioos:station:wmo:42047:1,2017-03-03T18:30:00Z,27.8966,-93.5973,2.0,302.597114,18.89652878,-99999.0,'11111222,11111222,99999999' 
TABS,ioos:station:wmo:42047:1,2017-03-03T19:00:00Z,27.8966,-93.5973,2.0,296.0485818,17.35259347,-99999.0,'11111222,11111222,99999999' 
TABS,ioos:station:wmo:42047:1,2017-03-03T19:30:00Z,27.8966,-93.5973,2.0,290.6171466,18.77224014,-99999.0,'11111222,11111222,99999999' 
TABS,ioos:station:wmo:42047:1,2017-03-03T20:00:00Z,27.8966,-93.5973,2.0,311.0448241,14.863435,-99999.0,'11111222,11111222,99999999' 
TABS,ioos:station:wmo:42047:1,2017-03-03T20:30:00Z,27.8966,-93.5973,2.0,315.2170153,18.69603701,-99999.0,'11111222,11111222,99999999' 
TABS,ioos:station:wmo:42047:1,2017-03-03T21:00:00Z,27.8966,-93.5973,2.0,319.9574302,22.25812211,-99999.0,'11111222,11111222,99999999' 
TABS,ioos:station:wmo:42047:1,2017-03-03T21:30:00Z,27.8966,-93.5973,2.0,319.6519193,18.92085886,-99999.0,'11111222,11111222,99999999' 
TABS,ioos:station:wmo:42047:1,2017-03-03T22:00:00Z,27.8966,-93.5973,2.0,324.0302566,19.10235588,-99999.0,'11111222,11111222,99999999' 
TABS,ioos:station:wmo:42047:1,2017-03-03T22:30:00Z,27.8966,-93.5973,2.0,310.5427922,19.0150493,-99999.0,'11111222,11111222,99999999' 
TABS,ioos:station:wmo:42047:1,2017-03-03T23:00:00Z,27.8966,-93.5973,2.0,320.8855697,17.30928364,-99999.0,'11111222,11111222,99999999' 
TABS,ioos:station:wmo:42047:1,2017-03-03T23:30:00Z,27.8966,-93.5973,2.0,334.1086473,14.8395721,-99999.0,'11111222,11111222,99999999' 
TABS,ioos:station:wmo:42047:1,2017-03-04T00:00:00Z,27.8966,-93.5973,2.0,317.243363,8.852688857,-99999.0,'11133222,11111222,99999999' 
TABS,ioos:station:wmo:42047:1,2017-03-04T00:30:00Z,27.8966,-93.5973,2.0,306.7355312,14.46203997,-99999.0,'11111222,11111222,99999999' 
TABS,ioos:station:wmo:42047:1,2017-03-04T01:00:00Z,27.8966,-93.5973,2.0,304.9422264,7.490240317,-99999.0,'11133222,11111222,99999999' 
TABS,ioos:station:wmo:42047:1,2017-03-04T01:30:00Z,27.8966,-93.5973,2.0,286.0143423,10.33089541,-99999.0,'11111222,11111222,99999999' 
TABS,ioos:station:wmo:42047:1,2017-03-04T02:00:00Z,27.8966,-93.5973,2.0,313.5436735,11.96104092,-99999.0,'11111222,11111222,99999999' 
TABS,ioos:station:wmo:42047:1,2017-03-04T02:30:00Z,27.8966,-93.5973,2.0,332.063133,8.217669986,-99999.0,'11133222,11111222,99999999' 
TABS,ioos:station:wmo:42047:1,2017-03-04T03:00:00Z,27.8966,-93.5973,2.0,285.6224846,8.763743492,-99999.0,'11133222,11111222,99999999' 
TABS,ioos:station:wmo:42047:1,2017-03-04T03:30:00Z,27.8966,-93.5973,2.0,297.2057686,6.802543642,-99999.0,'11133222,11111222,99999999' 
TABS,ioos:station:wmo:42047:1,2017-03-04T04:00:00Z,27.8966,-93.5973,2.0,285.9171925,11.01219778,-99999.0,'11111222,11111222,99999999' 
TABS,ioos:station:wmo:42047:1,2017-03-04T04:30:00Z,27.8966,-93.5973,2.0,312.4926198,7.757319125,-99999.0,'11133222,11111222,99999999' 
TABS,ioos:station:wmo:42047:1,2017-03-04T05:00:00Z,27.8966,-93.5973,2.0,302.2561043,8.975087743,-99999.0,'11133222,11111222,99999999' 
TABS,ioos:station:wmo:42047:1,2017-03-04T05:30:00Z,27.8966,-93.5973,2.0,290.4055742,8.002130966,-99999.0,'11133222,11111222,99999999' 
TABS,ioos:station:wmo:42047:1,2017-03-04T06:00:00Z,27.8966,-93.5973,2.0,296.8639949,7.72348367,-99999.0,'11133222,11111222,99999999' 
TABS,ioos:station:wmo:42047:1,2017-03-04T06:30:00Z,27.8966,-93.5973,2.0,287.418351,3.207054724,-99999.0,'11133222,11111222,99999999' 
TABS,ioos:station:wmo:42047:1,2017-03-04T07:00:00Z,27.8966,-93.5973,2.0,271.1616601,8.881824137,-99999.0,'11133222,11111222,99999999' 
TABS,ioos:station:wmo:42047:1,2017-03-04T07:30:00Z,27.8966,-93.5973,2.0,257.6207889,7.0437561,-99999.0,'11133222,11111222,99999999' 
TABS,ioos:station:wmo:42047:1,2017-03-04T08:00:00Z,27.8966,-93.5973,2.0,302.7089957,9.06790494,-99999.0,'11133222,11111222,99999999' 
TABS,ioos:station:wmo:42047:1,2017-03-04T08:30:00Z,27.8966,-93.5973,2.0,248.1982206,3.446505477,-99999.0,'11133222,11111222,99999999' 
TABS,ioos:station:wmo:42047:1,2017-03-04T09:00:00Z,27.8966,-93.5973,2.0,315.1293597,6.279124143,-99999.0,'11133222,11111222,99999999' 
TABS,ioos:station:wmo:42047:1,2017-03-04T09:30:00Z,27.8966,-93.5973,2.0,311.8475738,9.128422646,-99999.0,'11133222,11111222,99999999' 
TABS,ioos:station:wmo:42047:1,2017-03-04T10:00:00Z,27.8966,-93.5973,2.0,309.3588315,5.250952295,-99999.0,'11133222,11111222,99999999' 
TABS,ioos:station:wmo:42047:1,2017-03-04T10:30:00Z,27.8966,-93.5973,2.0,270.3555547,4.840092974,-99999.0,'11133222,11111222,99999999' 
TABS,ioos:station:wmo:42047:1,2017-03-04T11:00:00Z,27.8966,-93.5973,2.0,302.0599095,4.483793037,-99999.0,'11133222,11111222,99999999' 
TABS,ioos:station:wmo:42047:1,2017-03-04T11:30:00Z,27.8966,-93.5973,2.0,315.8796367,5.989899832,-99999.0,'11133222,11111222,99999999' 
TABS,ioos:station:wmo:42047:1,2017-03-04T12:00:00Z,27.8966,-93.5973,2.0,284.3231074,3.395541194,-99999.0,'11133222,11111222,99999999' 
TABS,ioos:station:wmo:42047:1,2017-03-04T12:30:00Z,27.8966,-93.5973,2.0,107.5255274,0.199248588,-99999.0,'11133222,11111222,99999999' 
TABS,ioos:station:wmo:42047:1,2017-03-04T13:00:00Z,27.8966,-93.5973,2.0,281.2962182,7.964276489,-99999.0,'11133222,11111222,99999999' 
TABS,ioos:station:wmo:42047:1,2017-03-04T13:30:00Z,27.8966,-93.5973,2.0,308.6382284,4.083944172,-99999.0,'11133222,11111222,99999999' 
TABS,ioos:station:wmo:42047:1,2017-03-04T14:00:00Z,27.8966,-93.5973,2.0,291.4388254,4.103949317,-99999.0,'11133222,11111222,99999999' 
TABS,ioos:station:wmo:42047:1,2017-03-04T14:30:00Z,27.8966,-93.5973,2.0,256.6603614,4.9844759,-99999.0,'11133222,11111222,99999999' 
TABS,ioos:station:wmo:42047:1,2017-03-04T15:00:00Z,27.8966,-93.5973,2.0,239.7778115,2.384030201,-99999.0,'11133222,11111222,99999999' 
TABS,ioos:station:wmo:42047:1,2017-03-04T15:30:00Z,27.8966,-93.5973,2.0,220.8757864,2.261526033,-99999.0,'11133222,11111222,99999999' 
TABS,ioos:station:wmo:42047:1,2017-03-04T16:00:00Z,27.8966,-93.5973,2.0,267.2825023,2.953320166,-99999.0,'11133222,11111222,99999999' 